Terminal Aerodrome Forecast
Issued by NWS

Home | Current Version | Previous Version | Text Only | Print | Product List | Glossary On
Versions: 1 2 3 4 5 6 7 8 9 10 11 12 13 14 15 16 17 18 19 20 21 22 23 24
000
FTUS43 KEAX 301700
TAFSTJ
TAF
KSTJ 301730Z 3018/3118 29006KT P6SM SCT080 SCT200
     FM302300 14005KT P6SM SKC
     FM311400 18013KT P6SM BKN250=

USA.gov is the U.S. government's official web portal to all federal, state and local government web resources and services.